Location: Coffee Ditch
(40.9640°N, 122.7500°W)
Time: 06:40:50
(UTC+00:00)

JB-3 - Pass Details

Date: 08 September 2024
Orbit: 505 x 557 km, 97.2° (Epoch: 05 October)

Event Time Altitude Azimuth Distance (km) Brightness Sun altitude
Rises 12:42:10 0° 163° (SSE) 2,634 7.8 -12.4°
Reaches altitude 10° 12:44:15 10° 162° (SSE) 1,760 6.9 -12.0°
Maximum altitude 12:48:02 76° 77° (ENE) 553 4.4 -11.4°
Drops below altitude 10° 12:51:56 10° 352° (N) 1,809 7.1 -10.7°
Sets 12:54:05 0° 350° (N) 2,715 8.0 -10.3°
